• In Hungary
  • List of Countries
  • For 7 days
  • Water Temperature
  • Satellite Maps
  • Weather Map
  • News
  • Weather Widgets
  • user-avatar
    Login

    Hourly Weather Podwilk

    Today, 16 October, Tuesday

    Time Temperature Precipitation Wind Pressure Humidity
    00:00 +10°C° 0 mm 1 mps 705 mmHg 56%
    01:00 +10°C° 0 mm 1 mps 705 mmHg 53%
    02:00 +10°C° 0 mm 1 mps 705 mmHg 52%
    03:00 +10°C° 0 mm 1 mps 705 mmHg 51%
    04:00 +10°C° 0 mm 1 mps 705 mmHg 50%
    05:00 +10°C° 0 mm 1 mps 705 mmHg 51%
    06:00 +10°C° 0 mm 1 mps 705 mmHg 52%
    07:00 +10°C° 0 mm 1 mps 705 mmHg 52%
    08:00 +13°C° 0 mm 1 mps 706 mmHg 48%
    09:00 +15°C° 0 mm 1 mps 706 mmHg 43%
    10:00 +18°C° 0 mm 1 mps 707 mmHg 38%
    11:00 +19°C° 0 mm 1 mps 707 mmHg 36%
    12:00 +20°C° 0 mm 1 mps 707 mmHg 35%
    13:00 +21°C° 0 mm 1 mps 707 mmHg 33%
    14:00 +20°C° 0 mm 1 mps 706 mmHg 38%
    15:00 +18°C° 0 mm 1 mps 706 mmHg 43%
    16:00 +16°C° 0 mm 1 mps 706 mmHg 48%
    17:00 +15°C° 0 mm 1 mps 706 mmHg 51%
    18:00 +13°C° 0 mm 1 mps 706 mmHg 54%
    19:00 +12°C° 0 mm 1 mps 705 mmHg 57%
    20:00 +12°C° 0 mm 1 mps 705 mmHg 58%
    21:00 +11°C° 0 mm 1 mps 706 mmHg 58%
    22:00 +11°C° 0 mm 1 mps 706 mmHg 58%
    23:00 +11°C° 0 mm 1 mps 706 mmHg 58%

    Tomorrow, 17 October, Wednesday

    Time Temperature Precipitation Wind Pressure Humidity
    00:00 +11°C° 0 mm 1 mps 706 mmHg 57%
    01:00 +11°C° 0 mm 1 mps 706 mmHg 57%
    02:00 +11°C° 0 mm 1 mps 705 mmHg 57%
    03:00 +11°C° 0 mm 1 mps 705 mmHg 58%
    04:00 +11°C° 0 mm 1 mps 705 mmHg 59%
    05:00 +11°C° 0 mm 1 mps 705 mmHg 60%
    06:00 +11°C° 0 mm 1 mps 705 mmHg 60%
    07:00 +11°C° 0 mm 1 mps 706 mmHg 61%
    08:00 +14°C° 0 mm 1 mps 706 mmHg 55%
    09:00 +16°C° 0 mm 1 mps 706 mmHg 49%
    10:00 +19°C° 0 mm 1 mps 706 mmHg 43%
    11:00 +20°C° 0 mm 1 mps 706 mmHg 42%
    12:00 +20°C° 0 mm 1 mps 706 mmHg 40%
    13:00 +21°C° 0 mm 1 mps 706 mmHg 38%
    14:00 +20°C° 0 mm 1 mps 706 mmHg 43%
    15:00 +19°C° 0 mm 1 mps 705 mmHg 47%
    16:00 +18°C° 0 mm 1 mps 705 mmHg 52%
    17:00 +15°C° 0 mm 1 mps 705 mmHg 55%
    18:00 +14°C° 0 mm 1 mps 704 mmHg 58%
    19:00 +13°C° 0 mm 1 mps 704 mmHg 61%
    20:00 +12°C° 0 mm 1 mps 704 mmHg 61%
    21:00 +12°C° 0 mm 1 mps 704 mmHg 61%
    22:00 +12°C° 0 mm 1 mps 704 mmHg 61%
    23:00 +11°C° 0 mm 0 mps 704 mmHg 61%

    Day after tomorrow, 18 October, Thursday

    Time Temperature Precipitation Wind Pressure Humidity
    00:00 +11°C° 0 mm 0 mps 704 mmHg 61%
    01:00 +11°C° 0 mm 0 mps 704 mmHg 60%
    02:00 +11°C° 0 mm 0 mps 704 mmHg 60%
    03:00 +11°C° 0 mm 0 mps 704 mmHg 61%
    04:00 +11°C° 0 mm 0 mps 704 mmHg 61%
    05:00 +11°C° 0 mm 0 mps 704 mmHg 62%
    06:00 +11°C° 0 mm 0 mps 704 mmHg 63%
    07:00 +11°C° 0 mm 0 mps 704 mmHg 63%
    08:00 +12°C° 0 mm 0 mps 704 mmHg 61%
    09:00 +14°C° 0 mm 1 mps 704 mmHg 58%
    10:00 +15°C° 0 mm 1 mps 704 mmHg 55%
    11:00 +16°C° 0 mm 1 mps 704 mmHg 54%
    12:00 +16°C° 0 mm 1 mps 704 mmHg 54%
    13:00 +16°C° 0 mm 1 mps 704 mmHg 53%
    14:00 +16°C° 0 mm 1 mps 704 mmHg 57%
    15:00 +15°C° 0 mm 1 mps 704 mmHg 61%
    16:00 +13°C° 0 mm 0 mps 704 mmHg 65%
    17:00 +13°C° 0 mm 0 mps 704 mmHg 67%
    18:00 +12°C° 0 mm 0 mps 704 mmHg 69%
    19:00 +11°C° 0 mm 0 mps 704 mmHg 71%
    20:00 +11°C° 0 mm 0 mps 704 mmHg 72%
    21:00 +11°C° 0 mm 0 mps 704 mmHg 74%
    22:00 +10°C° 0 mm 0 mps 704 mmHg 75%
    23:00 +10°C° 0 mm 0 mps 704 mmHg 76%

    19 October, Friday

    Time Temperature Precipitation Wind Pressure Humidity
    00:00 +10°C° 0 mm 0 mps 704 mmHg 77%
    01:00 +10°C° 0 mm 0 mps 704 mmHg 78%
    02:00 +9°C° 0 mm 0 mps 704 mmHg 78%
    03:00 +10°C° 0 mm 1 mps 704 mmHg 78%
    04:00 +10°C° 0 mm 1 mps 704 mmHg 79%
    05:00 +10°C° 0 mm 1 mps 704 mmHg 79%
    06:00 +10°C° 0 mm 1 mps 704 mmHg 79%
    07:00 +10°C° 0 mm 1 mps 704 mmHg 80%
    08:00 +12°C° 0 mm 1 mps 705 mmHg 74%
    09:00 +13°C° 0 mm 1 mps 705 mmHg 68%
    10:00 +15°C° 0 mm 2 mps 705 mmHg 63%
    11:00 +15°C° 0 mm 2 mps 705 mmHg 62%
    12:00 +15°C° 0 mm 2 mps 705 mmHg 61%
    13:00 +16°C° 0 mm 2 mps 705 mmHg 60%
    14:00 +15°C° 0.1 mm 2 mps 705 mmHg 65%
    15:00 +14°C° 0.1 mm 2 mps 705 mmHg 69%
    16:00 +14°C° 0.1 mm 2 mps 705 mmHg 73%
    17:00 +12°C° 0.1 mm 2 mps 705 mmHg 79%
    18:00 +10°C° 0.1 mm 2 mps 705 mmHg 85%
    19:00 +10°C° 0.1 mm 1 mps 705 mmHg 91%
    20:00 +10°C° 0.1 mm 1 mps 705 mmHg 92%
    21:00 +10°C° 0.1 mm 1 mps 705 mmHg 93%
    22:00 +10°C° 0.1 mm 1 mps 705 mmHg 93%
    23:00 +10°C° 0 mm 1 mps 705 mmHg 93%

    20 October, Saturday

    Time Temperature Precipitation Wind Pressure Humidity
    00:00 +10°C° 0 mm 1 mps 705 mmHg 93%
    01:00 +9°C° 0 mm 1 mps 705 mmHg 94%
    02:00 +9°C° 0 mm 1 mps 705 mmHg 93%
    03:00 +9°C° 0 mm 1 mps 705 mmHg 93%
    04:00 +9°C° 0 mm 1 mps 705 mmHg 93%
    05:00 +9°C° 0 mm 1 mps 705 mmHg 93%
    06:00 +9°C° 0 mm 1 mps 705 mmHg 93%
    07:00 +8°C° 0 mm 1 mps 706 mmHg 93%
    08:00 +9°C° 0 mm 1 mps 706 mmHg 87%
    09:00 +10°C° 0 mm 1 mps 706 mmHg 82%
    10:00 +10°C° 0 mm 2 mps 706 mmHg 76%
    11:00 +10°C° 0 mm 2 mps 706 mmHg 71%
    12:00 +12°C° 0 mm 2 mps 706 mmHg 65%
    13:00 +13°C° 0 mm 2 mps 706 mmHg 60%
    14:00 +12°C° 0 mm 2 mps 706 mmHg 61%
    15:00 +10°C° 0 mm 2 mps 705 mmHg 61%
    16:00 +9°C° 0 mm 2 mps 705 mmHg 62%
    17:00 +8°C° 0 mm 2 mps 705 mmHg 66%
    18:00 +7°C° 0 mm 2 mps 705 mmHg 71%
    19:00 +6°C° 0 mm 1 mps 705 mmHg 75%
    20:00 +6°C° 0 mm 1 mps 705 mmHg 77%
    21:00 +5°C° 0 mm 1 mps 705 mmHg 79%
    22:00 +5°C° 0 mm 1 mps 705 mmHg 81%
    23:00 +4°C° 0 mm 1 mps 705 mmHg 84%

    21 October, Sunday

    Time Temperature Precipitation Wind Pressure Humidity
    00:00 +4°C° 0 mm 1 mps 705 mmHg 86%
    01:00 +3°C° 0 mm 1 mps 705 mmHg 88%
    02:00 +3°C° 0 mm 2 mps 705 mmHg 87%
    03:00 +3°C° 0 mm 2 mps 705 mmHg 86%
    04:00 +3°C° 0 mm 2 mps 705 mmHg 85%
    05:00 +3°C° 0.2 mm 2 mps 705 mmHg 86%
    06:00 +3°C° 0.2 mm 2 mps 705 mmHg 87%
    07:00 +3°C° 0.2 mm 2 mps 705 mmHg 87%
    08:00 +4°C° 0.3 mm 2 mps 705 mmHg 85%
    09:00 +5°C° 0.3 mm 2 mps 705 mmHg 83%
    10:00 +4°C° 0.3 mm 3 mps 705 mmHg 81%
    11:00 +5°C° 0.1 mm 3 mps 705 mmHg 78%
    12:00 +5°C° 0.1 mm 3 mps 705 mmHg 75%
    13:00 +5°C° 0.1 mm 3 mps 705 mmHg 71%
    14:00 +5°C° 0.1 mm 3 mps 705 mmHg 73%
    15:00 +5°C° 0.1 mm 3 mps 705 mmHg 74%
    16:00 +6°C° 0.1 mm 2 mps 705 mmHg 76%
    17:00 +5°C° 0 mm 2 mps 705 mmHg 80%
    18:00 +4°C° 0 mm 2 mps 705 mmHg 84%
    19:00 +4°C° 0 mm 1 mps 705 mmHg 88%
    20:00 +4°C° 0 mm 1 mps 705 mmHg 89%
    21:00 +3°C° 0 mm 1 mps 705 mmHg 90%
    22:00 +3°C° 0 mm 1 mps 705 mmHg 91%
    23:00 +3°C° 0 mm 1 mps 705 mmHg 91%
    Show more